Tracking 28790 objects as of 18-Apr-2024
HD Live streaming from Space Station
objects crossing your sky now

GALILEO 26 (2C2)

Track GALILEO 26 (2C2) now!
GALILEO 26 (2C2) is classified as:


NORAD ID: 43565
Int'l Code: 2018-060B
Perigee: 23,220.8 km
Apogee: 23,237.5 km
Inclination: 57.3 °
Period: 844.7 minutes
Semi major axis: 29600 km
RCS: Unknown
Launch date: July 25, 2018
Source: European Space Agency (ESA)
Launch site: FRENCH GUIANA (FRGUI)
Your satellite tracking list
Your tracking list is empty




NASA's NSSDC Master Catalog

Two Line Element Set (TLE):
1 43565U 18060B   24107.39359900 -.00000110  00000-0  00000-0 0  9993
2 43565  57.3058   3.1338 0002823 285.0607  74.9371  1.70475381 35717
Source of the keplerian elements: AFSPC